,,,PA_Meas_PMT16A,,PR_Meas_QMR101_102,,RH_Meas_QMH101,,SR_Meas_QMS101,,TA_Meas_QMH101,,GenWind,,GenWind,
date,time,status,PA,status,PR,status,RH,status,SR,status,TA,status,DirAvg,status,SpdAvg,
2008-09-18, 00:00:04,VALID,1006.64,VALID,0,VALID,94.6973,VALID,0,VALID,23.7035,VALID,352,VALID,0.367578,
2008-09-18, 00:01:04,VALID,1006.62,VALID,0,VALID,94.6286,VALID,0,VALID,23.6646,VALID,352,VALID,0.307031,
2008-09-18, 00:02:04,VALID,1006.59,VALID,0,VALID,94.5981,VALID,0,VALID,23.6859,VALID,352,VALID,0.353125,
2008-09-18, 00:03:04,VALID,1006.58,VALID,0,VALID,94.6973,VALID,0,VALID,23.6646,VALID,352,VALID,0.278125,
2008-09-18, 00:04:04,VALID,1006.55,VALID,0,VALID,94.6515,VALID,0,VALID,23.6646,VALID,352,VALID,0.190625,
2008-09-18, 00:05:04,VALID,1006.55,VALID,0,VALID,94.6134,VALID,0,VALID,23.6646,VALID,352,VALID,0.333203,
2008-09-18, 00:06:04,VALID,1006.55,VALID,0,VALID,94.6286,VALID,0,VALID,23.6646,VALID,352,VALID,0.25625,
2008-09-18, 00:07:04,VALID,1006.54,VALID,0,VALID,94.5676,VALID,0,VALID,23.6452,VALID,352,VALID,0.384375,
2008-09-18, 00:08:04,VALID,1006.51,VALID,0,VALID,94.5142,VALID,0,VALID,23.6257,VALID,352,VALID,0.453125,
2008-09-18, 00:09:04,VALID,1006.47,VALID,0,VALID,94.4989,VALID,0,VALID,23.6275,VALID,352,VALID,0.360156,
2008-09-18, 00:10:04,VALID,1006.45,VALID,0,VALID,94.5142,VALID,0,VALID,23.5868,VALID,352,VALID,0.586719,
2008-09-18, 00:11:04,VALID,1006.4,VALID,0,VALID,94.5676,VALID,0,VALID,23.608,VALID,352,VALID,0.496484,
2008-09-18, 00:12:04,VALID,1006.38,VALID,0,VALID,94.5523,VALID,0,VALID,23.608,VALID,352,VALID,0.375391,
2008-09-18, 00:13:04,VALID,1006.36,VALID,0,VALID,94.5218,VALID,0,VALID,23.5868,VALID,352,VALID,0.51875,
2008-09-18, 00:14:04,VALID,1006.36,VALID,0,VALID,94.4684,VALID,0,VALID,23.5478,VALID,358,VALID,0.475391,
2008-09-18, 00:15:04,VALID,1006.36,VALID,0,VALID,94.6973,VALID,0,VALID,23.5478,VALID,358,VALID,0.30625,
2008-09-18, 00:16:04,VALID,1006.33,VALID,0,VALID,94.8346,VALID,0,VALID,23.5868,VALID,358,VALID,0.226563,
2008-09-18, 00:17:04,VALID,1006.32,VALID,0,VALID,94.8194,VALID,0,VALID,23.6062,VALID,358,VALID,0.00585938,
2008-09-18, 00:18:04,VALID,1006.31,VALID,0,VALID,94.8117,VALID,0,VALID,23.6257,VALID,358,VALID,0.0117188,
2008-09-18, 00:19:04,VALID,1006.29,VALID,0,VALID,94.6897,VALID,0,VALID,23.6469,VALID,358,VALID,0.166016,
2008-09-18, 00:20:04,VALID,1006.3,VALID,0,VALID,94.766,VALID,0,VALID,23.6452,VALID,358,VALID,0.135547,
2008-09-18, 00:21:04,VALID,1006.28,VALID,0,VALID,94.8117,VALID,0,VALID,23.6646,VALID,358,VALID,0.06875,
2008-09-18, 00:22:04,VALID,1006.29,VALID,0,VALID,94.8194,VALID,0,VALID,23.6841,VALID,358,VALID,0.166797,
2008-09-18, 00:23:04,VALID,1006.26,VALID,0,VALID,94.7049,VALID,0,VALID,23.7035,VALID,358,VALID,0.148828,
2008-09-18, 00:24:04,VALID,1006.24,VALID,0,VALID,94.6286,VALID,0,VALID,23.7425,VALID,358,VALID,0.0964844,
2008-09-18, 00:25:04,VALID,1006.21,VALID,0,VALID,94.4913,VALID,0,VALID,23.7637,VALID,358,VALID,0.0015625,
2008-09-18, 00:26:04,VALID,1006.17,VALID,0,VALID,94.4913,VALID,0,VALID,23.7832,VALID,358,VALID,0.151953,
2008-09-18, 00:27:04,VALID,1006.18,VALID,0,VALID,94.5218,VALID,0,VALID,23.8009,VALID,358,VALID,0.313672,
2008-09-18, 00:28:04,VALID,1006.14,VALID,0,VALID,94.3311,VALID,0,VALID,23.7991,VALID,358,VALID,0.417969,
2008-09-18, 00:29:04,VALID,1006.12,VALID,0,VALID,94.2243,VALID,0,VALID,23.8009,VALID,358,VALID,0.484375,
2008-09-18, 00:30:04,VALID,1006.13,VALID,0,VALID,93.9039,VALID,0,VALID,23.7814,VALID,358,VALID,0.632031,
2008-09-18, 00:31:04,VALID,1006.13,VALID,0,VALID,93.8429,VALID,0,VALID,23.723,VALID,358,VALID,0.628125,
2008-09-18, 00:32:04,VALID,1006.07,VALID,0,VALID,93.9649,VALID,0,VALID,23.7035,VALID,358,VALID,0.445703,
2008-09-18, 00:33:04,VALID,1006.04,VALID,0,VALID,94.2548,VALID,0,VALID,23.723,VALID,354,VALID,0.582031,
2008-09-18, 00:34:04,VALID,1006.05,VALID,0,VALID,94.3464,VALID,0,VALID,23.7619,VALID,352,VALID,0.673828,
2008-09-18, 00:35:04,VALID,1006.02,VALID,0,VALID,94.2319,VALID,0,VALID,23.7619,VALID,352,VALID,0.392188,
2008-09-18, 00:36:04,VALID,1006,VALID,0,VALID,94.1404,VALID,0,VALID,23.723,VALID,352,VALID,0.547656,
2008-09-18, 00:37:04,VALID,1005.95,VALID,0,VALID,94.1022,VALID,0,VALID,23.723,VALID,351,VALID,0.594141,
2008-09-18, 00:38:04,VALID,1005.93,VALID,0,VALID,94.293,VALID,0,VALID,23.7425,VALID,351,VALID,0.689453,
2008-09-18, 00:39:04,VALID,1005.91,VALID,0,VALID,94.415,VALID,0,VALID,23.7637,VALID,351,VALID,0.464844,
2008-09-18, 00:40:04,VALID,1005.89,VALID,0,VALID,94.3006,VALID,0,VALID,23.7619,VALID,341,VALID,0.502734,
2008-09-18, 00:41:04,VALID,1005.84,VALID,0,VALID,94.3311,VALID,0,VALID,23.7619,VALID,358,VALID,0.622266,
2008-09-18, 00:42:04,VALID,1005.83,VALID,0,VALID,94.2243,VALID,0,VALID,23.7619,VALID,356,VALID,0.341016,
2008-09-18, 00:43:04,VALID,1005.84,VALID,0,VALID,94.1938,VALID,0,VALID,23.7619,VALID,355,VALID,0.397266,
2008-09-18, 00:44:04,VALID,1005.79,VALID,0,VALID,94.1404,VALID,0,VALID,23.7814,VALID,341,VALID,0.672656,
2008-09-18, 00:45:04,VALID,1005.77,VALID,0,VALID,93.9802,VALID,0,VALID,23.7814,VALID,356,VALID,0.457031,
2008-09-18, 00:46:04,VALID,1005.71,VALID,0,VALID,93.9802,VALID,0,VALID,23.8027,VALID,354,VALID,0.626562,
2008-09-18, 00:47:04,VALID,1005.68,VALID,0,VALID,93.942,VALID,0,VALID,23.8009,VALID,347,VALID,0.575,
2008-09-18, 00:48:04,VALID,1005.63,VALID,0,VALID,93.82,VALID,0,VALID,23.8009,VALID,343,VALID,0.321875,
2008-09-18, 00:49:04,VALID,1005.6,VALID,0,VALID,93.7971,VALID,0,VALID,23.8203,VALID,343,VALID,0.428125,
2008-09-18, 00:50:04,VALID,1005.56,VALID,0,VALID,93.6064,VALID,0,VALID,23.8027,VALID,344,VALID,0.503516,
2008-09-18, 00:51:04,VALID,1005.55,VALID,0,VALID,94.0259,VALID,0,VALID,23.9177,VALID,26,VALID,1.06289,
2008-09-18, 00:52:04,VALID,1005.52,VALID,0,VALID,93.614,VALID,0,VALID,23.9566,VALID,5,VALID,0.293359,
2008-09-18, 00:53:04,VALID,1005.5,VALID,0,VALID,93.6826,VALID,0,VALID,24.0557,VALID,25,VALID,1.0668,
2008-09-18, 00:54:04,VALID,1005.52,VALID,0,VALID,93.5072,VALID,0,VALID,24.1513,VALID,19,VALID,1.06289,
2008-09-18, 00:55:04,VALID,1005.51,VALID,0,VALID,93.2554,VALID,0,VALID,24.307,VALID,11,VALID,0.818359,
2008-09-18, 00:56:04,VALID,1005.52,VALID,0,VALID,92.668,VALID,0,VALID,24.4628,VALID,11,VALID,0.386328,
2008-09-18, 00:57:04,VALID,1005.51,VALID,0,VALID,91.9662,VALID,0,VALID,24.5212,VALID,23,VALID,1.34648,
2008-09-18, 00:58:04,VALID,1005.53,VALID,0,VALID,91.6991,VALID,0,VALID,24.5814,VALID,32,VALID,1.06758,
2008-09-18, 00:59:04,VALID,1005.54,VALID,0,VALID,91.4092,VALID,0,VALID,24.599,VALID,35,VALID,0.961719,
2008-09-18, 01:00:04,VALID,1005.54,VALID,0,VALID,91.2567,VALID,0,VALID,24.6185,VALID,29,VALID,1.00312,
2008-09-18, 01:01:04,VALID,1005.55,VALID,0,VALID,90.9591,VALID,0,VALID,24.6788,VALID,20,VALID,0.2125,
2008-09-18, 01:02:04,VALID,1005.55,VALID,0,VALID,90.8523,VALID,0,VALID,24.638,VALID,20,VALID,0.196484,
2008-09-18, 01:03:04,VALID,1005.52,VALID,0,VALID,90.8218,VALID,0,VALID,24.638,VALID,20,VALID,0.433984,
2008-09-18, 01:04:04,VALID,1005.51,VALID,0,VALID,90.6616,VALID,0,VALID,24.6204,VALID,20,VALID,0.517969,
2008-09-18, 01:05:04,VALID,1005.48,VALID,0,VALID,90.7455,VALID,0,VALID,24.599,VALID,20,VALID,0.341016,
2008-09-18, 01:06:04,VALID,1005.49,VALID,0,VALID,90.7379,VALID,0,VALID,24.5796,VALID,16,VALID,0.336719,
2008-09-18, 01:07:04,VALID,1005.48,VALID,0,VALID,90.7532,VALID,0,VALID,24.562,VALID,4,VALID,0.471484,
2008-09-18, 01:08:04,VALID,1005.47,VALID,0,VALID,90.7913,VALID,0,VALID,24.5212,VALID,12,VALID,0.433203,
2008-09-18, 01:09:04,VALID,1005.47,VALID,0,VALID,90.8829,VALID,0,VALID,24.5017,VALID,336,VALID,0.916016,
2008-09-18, 01:10:04,VALID,1005.46,VALID,0,VALID,90.9668,VALID,0,VALID,24.523,VALID,43,VALID,0.640234,
2008-09-18, 01:11:04,VALID,1005.46,VALID,0,VALID,91.0507,VALID,0,VALID,24.5814,VALID,38,VALID,0.923828,
2008-09-18, 01:12:04,VALID,1005.45,VALID,0,VALID,90.715,VALID,0,VALID,24.6185,VALID,33,VALID,0.761328,
2008-09-18, 01:13:04,VALID,1005.46,VALID,0,VALID,90.3107,VALID,0,VALID,24.6593,VALID,353,VALID,0.7375,
2008-09-18, 01:14:04,VALID,1005.45,VALID,0,VALID,90.4251,VALID,0,VALID,24.6593,VALID,28,VALID,0.83125,
2008-09-18, 01:15:04,VALID,1005.43,VALID,0,VALID,90.509,VALID,0,VALID,24.7548,VALID,29,VALID,1.50508,
2008-09-18, 01:16:04,VALID,1005.48,VALID,0,VALID,89.9521,VALID,0,VALID,24.854,VALID,21,VALID,0.750781,
2008-09-18, 01:17:04,VALID,1005.48,VALID,0,VALID,89.5478,VALID,0,VALID,24.9125,VALID,22,VALID,0.469531,
2008-09-18, 01:18:04,VALID,1005.46,VALID,0,VALID,89.4486,VALID,0,VALID,24.8911,VALID,23,VALID,0.542969,
2008-09-18, 01:19:04,VALID,1005.47,VALID,0,VALID,89.38,VALID,0,VALID,24.9125,VALID,23,VALID,0.191797,
2008-09-18, 01:20:04,VALID,1005.47,VALID,0,VALID,89.3647,VALID,0,VALID,24.8911,VALID,51,VALID,0.326172,
2008-09-18, 01:21:04,VALID,1005.48,VALID,0,VALID,89.2732,VALID,0,VALID,24.8716,VALID,324,VALID,0.416797,
2008-09-18, 01:22:04,VALID,1005.49,VALID,0,VALID,89.235,VALID,0,VALID,24.854,VALID,320,VALID,0.335938,
2008-09-18, 01:23:04,VALID,1005.47,VALID,0,VALID,89.3342,VALID,0,VALID,24.8151,VALID,319,VALID,0.096875,
2008-09-18, 01:24:04,VALID,1005.47,VALID,0,VALID,89.4181,VALID,0,VALID,24.7353,VALID,319,VALID,0.0140625,
2008-09-18, 01:25:04,VALID,1005.47,VALID,0,VALID,89.5936,VALID,0,VALID,24.7177,VALID,319,VALID,0.201953,
2008-09-18, 01:26:04,VALID,1005.47,VALID,0,VALID,89.7767,VALID,0,VALID,24.6788,VALID,319,VALID,0.3,
2008-09-18, 01:27:04,VALID,1005.48,VALID,0,VALID,89.914,VALID,0,VALID,24.6204,VALID,322,VALID,0.285547,
2008-09-18, 01:28:04,VALID,1005.47,VALID,0,VALID,90.1123,VALID,0,VALID,24.5406,VALID,343,VALID,0.219141,
2008-09-18, 01:29:04,VALID,1005.45,VALID,0,VALID,90.4022,VALID,0,VALID,24.4822,VALID,350,VALID,0.456641,
2008-09-18, 01:30:04,VALID,1005.46,VALID,0,VALID,90.6235,VALID,0,VALID,24.4433,VALID,352,VALID,0.0609375,
2008-09-18, 01:31:04,VALID,1005.44,VALID,0,VALID,90.6921,VALID,0,VALID,24.4043,VALID,352,VALID,0.1375,
2008-09-18, 01:32:04,VALID,1005.4,VALID,0,VALID,90.7989,VALID,0,VALID,24.3265,VALID,351,VALID,0.519141,
2008-09-18, 01:33:04,VALID,1005.45,VALID,0,VALID,90.982,VALID,0,VALID,24.3088,VALID,351,VALID,0.287891,
2008-09-18, 01:34:04,VALID,1005.4,VALID,0,VALID,91.1422,VALID,0,VALID,24.2504,VALID,351,VALID,0.304688,
2008-09-18, 01:35:04,VALID,1005.45,VALID,0,VALID,91.3864,VALID,0,VALID,24.1707,VALID,350,VALID,0.373437,
2008-09-18, 01:36:04,VALID,1005.42,VALID,0,VALID,91.5618,VALID,0,VALID,24.1336,VALID,350,VALID,0.198828,
2008-09-18, 01:37:04,VALID,1005.42,VALID,0,VALID,91.8059,VALID,0,VALID,24.0539,VALID,349,VALID,0.213672,
2008-09-18, 01:38:04,VALID,1005.43,VALID,0,VALID,92.0119,VALID,0,VALID,24.015,VALID,348,VALID,0.298047,
2008-09-18, 01:39:04,VALID,1005.44,VALID,0,VALID,92.3705,VALID,0,VALID,24.0168,VALID,338,VALID,0.519531,
2008-09-18, 01:40:04,VALID,1005.43,VALID,0,VALID,92.5536,VALID,0,VALID,24.0168,VALID,318,VALID,0.427344,
2008-09-18, 01:41:04,VALID,1005.43,VALID,0,VALID,92.5231,VALID,0,VALID,24.0168,VALID,336,VALID,0.492188,
2008-09-18, 01:42:04,VALID,1005.43,VALID,0,VALID,92.5536,VALID,0,VALID,23.9761,VALID,336,VALID,0.362891,
2008-09-18, 01:43:04,VALID,1005.47,VALID,0,VALID,92.7367,VALID,0,VALID,23.9761,VALID,338,VALID,0.449219,
2008-09-18, 01:44:04,VALID,1005.49,VALID,0,VALID,92.6299,VALID,0,VALID,23.9584,VALID,338,VALID,0.282422,
2008-09-18, 01:45:04,VALID,1005.48,VALID,0,VALID,92.9884,VALID,0,VALID,23.9371,VALID,338,VALID,0.617969,
2008-09-18, 01:46:04,VALID,1005.5,VALID,0,VALID,93.1639,VALID,0,VALID,23.9566,VALID,338,VALID,0.432813,
2008-09-18, 01:47:04,VALID,1005.51,VALID,0,VALID,93.0495,VALID,0,VALID,23.9761,VALID,338,VALID,0,
2008-09-18, 01:48:04,VALID,1005.52,VALID,0,VALID,93.0189,VALID,0,VALID,23.9779,VALID,338,VALID,0.275391,
2008-09-18, 01:49:04,VALID,1005.53,VALID,0,VALID,92.9884,VALID,0,VALID,23.9584,VALID,338,VALID,0.179688,
2008-09-18, 01:50:04,VALID,1005.56,VALID,0,VALID,93.0037,VALID,0,VALID,23.9389,VALID,340,VALID,0.300391,
2008-09-18, 01:51:04,VALID,1005.57,VALID,0,VALID,92.9808,VALID,0,VALID,23.9195,VALID,341,VALID,0.133984,
2008-09-18, 01:52:04,VALID,1005.55,VALID,0,VALID,92.8969,VALID,0,VALID,23.9,VALID,341,VALID,0.00117188,
2008-09-18, 01:53:04,VALID,1005.53,VALID,0,VALID,92.8358,VALID,0,VALID,23.8787,VALID,346,VALID,0.434766,
2008-09-18, 01:54:04,VALID,1005.52,VALID,0,VALID,92.8664,VALID,0,VALID,23.9,VALID,353,VALID,0.324219,
2008-09-18, 01:55:04,VALID,1005.55,VALID,0,VALID,92.8511,VALID,0,VALID,23.9195,VALID,356,VALID,0.307031,
2008-09-18, 01:56:04,VALID,1005.57,VALID,0,VALID,92.7214,VALID,0,VALID,23.8982,VALID,356,VALID,0.121875,
2008-09-18, 01:57:04,VALID,1005.56,VALID,0,VALID,92.6528,VALID,0,VALID,23.8982,VALID,356,VALID,0,
2008-09-18, 01:58:04,VALID,1005.56,VALID,0,VALID,92.5841,VALID,0,VALID,23.9195,VALID,356,VALID,0,
2008-09-18, 01:59:04,VALID,1005.56,VALID,0,VALID,92.5841,VALID,0,VALID,23.8982,VALID,355,VALID,0.0289063,
2008-09-18, 02:00:04,VALID,1005.57,VALID,0,VALID,92.5078,VALID,0,VALID,23.8769,VALID,355,VALID,0.0941406,
2008-09-18, 02:01:04,VALID,1005.57,VALID,0,VALID,92.4925,VALID,0,VALID,23.8787,VALID,355,VALID,0,
2008-09-18, 02:02:04,VALID,1005.58,VALID,0,VALID,92.5078,VALID,0,VALID,23.8593,VALID,355,VALID,0,
2008-09-18, 02:03:04,VALID,1005.57,VALID,0,VALID,92.5688,VALID,0,VALID,23.8398,VALID,355,VALID,0,
2008-09-18, 02:04:04,VALID,1005.55,VALID,0,VALID,92.6451,VALID,0,VALID,23.8416,VALID,355,VALID,0,
2008-09-18, 02:05:04,VALID,1005.53,VALID,0,VALID,92.7824,VALID,0,VALID,23.8009,VALID,355,VALID,0,
2008-09-18, 02:06:04,VALID,1005.52,VALID,0,VALID,92.9884,VALID,0,VALID,23.8009,VALID,293,VALID,0.441797,
2008-09-18, 02:07:04,VALID,1005.52,VALID,0,VALID,93.1639,VALID,0,VALID,23.8221,VALID,249,VALID,0.0289063,
2008-09-18, 02:08:04,VALID,1005.49,VALID,0,VALID,93.2707,VALID,0,VALID,23.8009,VALID,249,VALID,0,
2008-09-18, 02:09:04,VALID,1005.47,VALID,0,VALID,93.3165,VALID,0,VALID,23.8027,VALID,249,VALID,0.0445312,
2008-09-18, 02:10:04,VALID,1005.46,VALID,0,VALID,93.3546,VALID,0,VALID,23.8027,VALID,249,VALID,0,
2008-09-18, 02:11:04,VALID,1005.45,VALID,0,VALID,93.4233,VALID,0,VALID,23.8027,VALID,249,VALID,0.277734,
2008-09-18, 02:12:04,VALID,1005.39,VALID,0,VALID,93.3165,VALID,0,VALID,23.7425,VALID,269,VALID,0.464453,
2008-09-18, 02:13:04,VALID,1005.4,VALID,0,VALID,93.3775,VALID,0,VALID,23.7248,VALID,5,VALID,0.585938,
2008-09-18, 02:14:04,VALID,1005.37,VALID,0,VALID,93.469,VALID,0,VALID,23.6841,VALID,14,VALID,0.591797,
2008-09-18, 02:15:04,VALID,1005.35,VALID,0,VALID,93.5453,VALID,0,VALID,23.6257,VALID,14,VALID,0.544531,
2008-09-18, 02:16:04,VALID,1005.36,VALID,0,VALID,93.5606,VALID,0,VALID,23.6062,VALID,14,VALID,0.148438,
2008-09-18, 02:17:04,VALID,1005.39,VALID,0,VALID,93.6674,VALID,0,VALID,23.5885,VALID,14,VALID,0.158203,
2008-09-18, 02:18:04,VALID,1005.4,VALID,0,VALID,93.7818,VALID,0,VALID,23.608,VALID,14,VALID,0,
2008-09-18, 02:19:04,VALID,1005.42,VALID,0,VALID,93.82,VALID,0,VALID,23.546,VALID,14,VALID,0.397266,
2008-09-18, 02:20:04,VALID,1005.43,VALID,0,VALID,93.8581,VALID,0,VALID,23.5691,VALID,14,VALID,0.397266,
2008-09-18, 02:21:04,VALID,1005.43,VALID,0,VALID,93.9039,VALID,0,VALID,23.5284,VALID,14,VALID,0.291016,
2008-09-18, 02:22:04,VALID,1005.44,VALID,0,VALID,93.9878,VALID,0,VALID,23.5089,VALID,14,VALID,0.275391,
2008-09-18, 02:23:04,VALID,1005.45,VALID,0,VALID,93.9649,VALID,0,VALID,23.4894,VALID,14,VALID,0.221875,
2008-09-18, 02:24:04,VALID,1005.45,VALID,0,VALID,93.9115,VALID,0,VALID,23.4505,VALID,14,VALID,0.451562,
2008-09-18, 02:25:04,VALID,1005.48,VALID,0,VALID,94.0107,VALID,0,VALID,23.4505,VALID,14,VALID,0.618359,
2008-09-18, 02:26:04,VALID,1005.47,VALID,0,VALID,94.1251,VALID,0,VALID,23.4311,VALID,14,VALID,0.580859,
2008-09-18, 02:27:04,VALID,1005.48,VALID,0,VALID,94.1862,VALID,0,VALID,23.4116,VALID,14,VALID,0.5,
2008-09-18, 02:28:04,VALID,1005.48,VALID,0,VALID,94.1938,VALID,0,VALID,23.4116,VALID,14,VALID,0.379297,
2008-09-18, 02:29:04,VALID,1005.45,VALID,0,VALID,94.2014,VALID,0,VALID,23.3727,VALID,14,VALID,0.24375,
2008-09-18, 02:30:04,VALID,1005.42,VALID,0,VALID,94.1328,VALID,0,VALID,23.3744,VALID,14,VALID,0.347656,
2008-09-18, 02:31:04,VALID,1005.42,VALID,0,VALID,94.087,VALID,0,VALID,23.2966,VALID,14,VALID,0.294141,
2008-09-18, 02:32:04,VALID,1005.39,VALID,0,VALID,94.1556,VALID,0,VALID,23.2559,VALID,14,VALID,0.239063,
2008-09-18, 02:33:04,VALID,1005.36,VALID,0,VALID,94.2701,VALID,0,VALID,23.2364,VALID,13,VALID,0.358203,
2008-09-18, 02:34:04,VALID,1005.33,VALID,0,VALID,94.4913,VALID,0,VALID,23.2577,VALID,12,VALID,0.367188,
2008-09-18, 02:35:04,VALID,1005.32,VALID,0,VALID,94.8117,VALID,0,VALID,23.3143,VALID,12,VALID,0.328516,
2008-09-18, 02:36:04,VALID,1005.32,VALID,0,VALID,94.7736,VALID,0,VALID,23.3744,VALID,11,VALID,0.377344,
2008-09-18, 02:37:04,VALID,1005.29,VALID,0,VALID,94.7354,VALID,0,VALID,23.3727,VALID,11,VALID,0.536719,
2008-09-18, 02:38:04,VALID,1005.32,VALID,0,VALID,94.7431,VALID,0,VALID,23.3727,VALID,11,VALID,0.423047,
2008-09-18, 02:39:04,VALID,1005.32,VALID,0,VALID,94.6439,VALID,0,VALID,23.3727,VALID,11,VALID,0.358984,
2008-09-18, 02:40:04,VALID,1005.3,VALID,0,VALID,94.7431,VALID,0,VALID,23.3744,VALID,11,VALID,0.205078,
2008-09-18, 02:41:04,VALID,1005.3,VALID,0,VALID,94.8041,VALID,0,VALID,23.3727,VALID,11,VALID,0.090625,
2008-09-18, 02:42:04,VALID,1005.3,VALID,0,VALID,94.7736,VALID,0,VALID,23.3727,VALID,11,VALID,0,
2008-09-18, 02:43:04,VALID,1005.29,VALID,0,VALID,94.8346,VALID,0,VALID,23.3921,VALID,11,VALID,0,
2008-09-18, 02:44:04,VALID,1005.3,VALID,0,VALID,94.827,VALID,0,VALID,23.3921,VALID,11,VALID,0,
2008-09-18, 02:45:04,VALID,1005.32,VALID,0,VALID,94.6897,VALID,0,VALID,23.3727,VALID,11,VALID,0.160156,
2008-09-18, 02:46:04,VALID,1005.31,VALID,0,VALID,94.5676,VALID,0,VALID,23.3355,VALID,11,VALID,0.153125,
2008-09-18, 02:47:04,VALID,1005.31,VALID,0,VALID,94.5676,VALID,0,VALID,23.2754,VALID,11,VALID,0.128125,
2008-09-18, 02:48:04,VALID,1005.3,VALID,0,VALID,94.6515,VALID,0,VALID,23.2754,VALID,11,VALID,0.00234375,
2008-09-18, 02:49:04,VALID,1005.28,VALID,0,VALID,94.6744,VALID,0,VALID,23.2559,VALID,11,VALID,0,
2008-09-18, 02:50:04,VALID,1005.28,VALID,0,VALID,94.6363,VALID,0,VALID,23.2559,VALID,11,VALID,0,
2008-09-18, 02:51:04,VALID,1005.32,VALID,0,VALID,94.6744,VALID,0,VALID,23.2152,VALID,11,VALID,0,
2008-09-18, 02:52:04,VALID,1005.32,VALID,0,VALID,94.6973,VALID,0,VALID,23.217,VALID,11,VALID,0,
2008-09-18, 02:53:04,VALID,1005.31,VALID,0,VALID,94.7507,VALID,0,VALID,23.217,VALID,11,VALID,0,
2008-09-18, 02:54:04,VALID,1005.33,VALID,0,VALID,94.7507,VALID,0,VALID,23.217,VALID,11,VALID,0,
2008-09-18, 02:55:04,VALID,1005.33,VALID,0,VALID,94.7583,VALID,0,VALID,23.217,VALID,11,VALID,0,
2008-09-18, 02:56:04,VALID,1005.31,VALID,0,VALID,94.7812,VALID,0,VALID,23.1975,VALID,11,VALID,0,
2008-09-18, 02:57:04,VALID,1005.33,VALID,0,VALID,94.8956,VALID,0,VALID,23.217,VALID,51,VALID,0.585547,
2008-09-18, 02:58:04,VALID,1005.31,VALID,0,VALID,94.9567,VALID,0,VALID,23.2559,VALID,56,VALID,0.320703,
2008-09-18, 02:59:04,VALID,1005.33,VALID,0,VALID,95.0482,VALID,0,VALID,23.2966,VALID,56,VALID,0.578906,
2008-09-18, 03:00:04,VALID,1005.29,VALID,0,VALID,95.0101,VALID,0,VALID,23.3143,VALID,56,VALID,0.260156,
2008-09-18, 03:01:04,VALID,1005.3,VALID,0,VALID,94.9109,VALID,0.100563,VALID,23.2948,VALID,56,VALID,0.263672,
2008-09-18, 03:02:04,VALID,1005.26,VALID,0,VALID,94.949,VALID,0,VALID,23.3355,VALID,56,VALID,0.408203,
2008-09-18, 03:03:04,VALID,1005.27,VALID,0,VALID,94.888,VALID,0,VALID,23.3143,VALID,24,VALID,0.571484,
2008-09-18, 03:04:04,VALID,1005.26,VALID,0,VALID,94.7583,VALID,0,VALID,23.3143,VALID,24,VALID,0.505859,
2008-09-18, 03:05:05,VALID,1005.25,VALID,0,VALID,94.9719,VALID,0,VALID,23.3337,VALID,347,VALID,0.674609,
2008-09-18, 03:06:05,VALID,1005.21,VALID,0,VALID,94.8651,VALID,0,VALID,23.3337,VALID,356,VALID,0.520703,
2008-09-18, 03:07:05,VALID,1005.17,VALID,0,VALID,94.9033,VALID,0.100563,VALID,23.3709,VALID,354,VALID,0.471875,
2008-09-18, 03:08:05,VALID,1005.14,VALID,0,VALID,94.6973,VALID,0.100563,VALID,23.3921,VALID,10,VALID,0.561719,
2008-09-18, 03:09:05,VALID,1005.15,VALID,0,VALID,94.9033,VALID,0,VALID,23.4487,VALID,9,VALID,0.541406,
2008-09-18, 03:10:05,VALID,1005.14,VALID,0,VALID,95.2695,VALID,0,VALID,23.723,VALID,33,VALID,1.0457,
2008-09-18, 03:11:05,VALID,1005.14,VALID,0,VALID,95.0787,VALID,0,VALID,23.9566,VALID,29,VALID,1.61563,
2008-09-18, 03:12:05,VALID,1005.14,VALID,0,VALID,94.4913,VALID,0,VALID,24.1707,VALID,17,VALID,0.633984,
2008-09-18, 03:13:05,VALID,1005.18,VALID,0,VALID,93.8657,VALID,0.100563,VALID,24.2875,VALID,22,VALID,0.906641,
2008-09-18, 03:14:05,VALID,1005.17,VALID,0,VALID,93.2097,VALID,0.100563,VALID,24.5582,VALID,31,VALID,1.81719,
2008-09-18, 03:15:05,VALID,1005.2,VALID,0,VALID,91.9204,VALID,0,VALID,24.8132,VALID,25,VALID,0.915625,
2008-09-18, 03:16:05,VALID,1005.21,VALID,0,VALID,90.9439,VALID,0.100563,VALID,24.9495,VALID,41,VALID,1.05195,
2008-09-18, 03:17:05,VALID,1005.23,VALID,0,VALID,90.1352,VALID,0,VALID,25.0255,VALID,32,VALID,0.813672,
2008-09-18, 03:18:05,VALID,1005.22,VALID,0,VALID,89.6546,VALID,0,VALID,25.0858,VALID,21,VALID,0.745703,
2008-09-18, 03:19:05,VALID,1005.21,VALID,0,VALID,89.6012,VALID,0,VALID,25.0255,VALID,17,VALID,1.10195,
2008-09-18, 03:20:05,VALID,1005.24,VALID,0,VALID,89.296,VALID,0.100563,VALID,25.1053,VALID,30,VALID,0.960938,
2008-09-18, 03:21:05,VALID,1005.24,VALID,0,VALID,88.9375,VALID,0.100563,VALID,25.1442,VALID,34,VALID,1.00195,
2008-09-18, 03:22:05,VALID,1005.27,VALID,0,VALID,88.6552,VALID,0.100563,VALID,25.1442,VALID,28,VALID,0.587109,
2008-09-18, 03:23:05,VALID,1005.28,VALID,0,VALID,88.6094,VALID,0,VALID,25.045,VALID,28,VALID,0.492969,
2008-09-18, 03:24:05,VALID,1005.31,VALID,0,VALID,89.1282,VALID,0,VALID,24.9885,VALID,23,VALID,1.06602,
2008-09-18, 03:25:05,VALID,1005.35,VALID,0,VALID,88.9909,VALID,0.100563,VALID,25.1053,VALID,31,VALID,1.02227,
2008-09-18, 03:26:05,VALID,1005.39,VALID,0,VALID,88.6781,VALID,0,VALID,25.1248,VALID,26,VALID,0.8,
2008-09-18, 03:27:05,VALID,1005.42,VALID,0,VALID,88.5026,VALID,0,VALID,25.1442,VALID,42,VALID,0.604688,
2008-09-18, 03:28:05,VALID,1005.45,VALID,0,VALID,88.4111,VALID,0,VALID,25.1442,VALID,33,VALID,0.504297,
2008-09-18, 03:29:05,VALID,1005.48,VALID,0,VALID,88.4798,VALID,0,VALID,25.1053,VALID,35,VALID,0.503516,
2008-09-18, 03:30:05,VALID,1005.45,VALID,0,VALID,88.6628,VALID,0,VALID,25.0469,VALID,75,VALID,0.379297,
2008-09-18, 03:31:05,VALID,1005.47,VALID,0,VALID,88.8612,VALID,0,VALID,24.969,VALID,25,VALID,0.305078,
2008-09-18, 03:32:05,VALID,1005.5,VALID,0,VALID,89.0824,VALID,0,VALID,24.9106,VALID,25,VALID,0.167187,
2008-09-18, 03:33:05,VALID,1005.5,VALID,0,VALID,89.2426,VALID,0,VALID,24.8522,VALID,28,VALID,0.296094,
2008-09-18, 03:34:05,VALID,1005.48,VALID,0,VALID,89.4868,VALID,0,VALID,24.7937,VALID,28,VALID,0.21875,
2008-09-18, 03:35:05,VALID,1005.47,VALID,0,VALID,89.7919,VALID,0,VALID,24.7353,VALID,29,VALID,0.375781,
2008-09-18, 03:36:05,VALID,1005.47,VALID,0,VALID,89.975,VALID,0.100563,VALID,24.6574,VALID,29,VALID,0.191797,
2008-09-18, 03:37:05,VALID,1005.47,VALID,0,VALID,90.1657,VALID,0,VALID,24.5796,VALID,29,VALID,0.20625,
2008-09-18, 03:38:05,VALID,1005.43,VALID,0,VALID,90.3488,VALID,0,VALID,24.5406,VALID,29,VALID,0.141406,
2008-09-18, 03:39:05,VALID,1005.43,VALID,0,VALID,90.6158,VALID,0,VALID,24.4433,VALID,29,VALID,0.266797,
2008-09-18, 03:40:05,VALID,1005.4,VALID,0,VALID,90.8447,VALID,0,VALID,24.3867,VALID,29,VALID,0.238672,
2008-09-18, 03:41:05,VALID,1005.41,VALID,0,VALID,91.1193,VALID,0,VALID,24.307,VALID,29,VALID,0.271094,
2008-09-18, 03:42:05,VALID,1005.4,VALID,0,VALID,91.3101,VALID,0,VALID,24.2681,VALID,29,VALID,0.195313,
2008-09-18, 03:43:05,VALID,1005.4,VALID,0,VALID,91.5084,VALID,0,VALID,24.231,VALID,29,VALID,0.135547,
2008-09-18, 03:44:05,VALID,1005.37,VALID,0,VALID,91.722,VALID,0,VALID,24.1513,VALID,29,VALID,0,
2008-09-18, 03:45:05,VALID,1005.36,VALID,0,VALID,91.9051,VALID,0,VALID,24.1123,VALID,29,VALID,0,
2008-09-18, 03:46:05,VALID,1005.34,VALID,0,VALID,92.1035,VALID,0,VALID,24.0734,VALID,29,VALID,0.128516,